Theta_e
313 313 313 313 313 312 312 312 313 313 313 313 313 312 312 312 312 302 295 301 305 315 317 307 305 307 304 298 301 298 289 287 287 287 288 290 290 298 304 303 302 303 304 319 345
312 312 312 312 312 312 312 312 312 313 313 313 312 312 312 311 303 297 307 311 315 320 308 303 297 301 298 295 296 295 291 292 292 292 289 292 292 295 300 300 302 303 307 309 342
312 312 312 312 312 312 312 312 313 313 313 312 312 311 311 309 293 290 313 315 316 319 304 306 302 300 293 291 292 293 293 298 295 296 295 294 294 298 297 296 300 301 304 307 338
312 312 312 311 311 311 312 312 313 313 313 312 312 312 311 303 282 298 316 315 316 309 304 304 300 292 291 291 292 287 293 299 298 301 298 297 300 299 298 298 304 306 308 307 333
311 311 311 311 311 312 312 312 313 313 313 312 312 311 304 292 293 303 314 310 305 302 298 301 294 293 289 291 293 289 291 293 299 300 299 301 300 300 301 304 306 307 309 308 332
311 311 310 311 311 311 312 312 312 312 312 313 311 311 301 288 302 305 304 304 303 299 295 300 298 296 291 291 291 293 293 295 296 294 296 299 300 300 302 306 306 306 304 305 313
311 310 310 310 311 311 313 313 313 313 314 314 313 307 297 294 304 304 304 302 303 302 297 298 300 297 293 290 294 294 290 293 293 293 294 295 293 295 303 305 305 305 305 305 305
311 310 310 310 311 312 312 313 313 314 315 315 314 303 294 304 305 305 303 303 303 303 301 301 299 295 294 296 294 292 290 283 290 293 295 296 287 295 299 301 302 303 303 304 303
311 311 310 310 311 311 312 312 313 314 316 315 303 298 293 307 302 306 305 302 302 301 302 305 297 291 291 288 285 287 282 283 287 293 293 293 290 296 299 299 299 300 301 302 301
311 310 310 310 311 311 311 312 311 313 312 310 307 293 295 295 300 304 306 306 301 299 297 296 291 286 284 284 279 282 282 286 286 290 292 290 291 295 297 298 298 298 300 300 301
310 310 310 310 310 311 306 297 294 291 298 293 293 294 297 300 302 301 304 302 300 296 289 291 284 281 285 287 289 288 287 286 288 292 290 289 290 293 296 297 296 296 298 299 300
309 309 310 310 310 310 299 294 296 296 289 297 297 297 300 299 295 300 304 296 293 289 291 289 284 288 289 289 288 288 286 285 288 292 291 291 291 294 295 297 298 298 298 298 299
309 309 309 309 309 300 295 297 299 299 289 294 297 296 297 298 295 296 301 297 293 290 290 287 289 292 288 287 286 286 284 285 285 290 292 290 289 292 295 297 298 300 300 299 300
309 309 308 308 299 295 296 299 299 298 282 288 291 296 297 297 293 301 302 299 293 289 290 288 293 291 288 286 286 282 289 289 289 286 281 291 280 287 292 294 296 298 297 299 299
309 309 308 307 296 295 297 299 297 295 271 289 291 299 299 293 295 295 304 298 291 291 292 289 290 288 287 288 290 285 290 289 288 287 285 286 282 286 290 291 294 297 299 298 298
308 309 308 301 297 299 301 297 296 282 274 287 292 292 291 294 294 296 296 301 298 292 292 291 296 292 289 292 292 292 288 287 286 286 279 284 284 283 286 292 296 297 299 299 298
308 308 304 302 295 299 298 293 282 275 288 286 287 291 290 289 291 292 291 290 287 282 278 288 290 294 294 287 291 289 282 274 276 277 277 285 284 286 291 294 295 296 297 299 299
306 305 301 304 301 300 293 286 276 284 285 292 290 289 285 290 290 291 289 286 293 288 285 279 280 291 294 289 285 287 284 275 269 274 276 285 280 286 296 299 298 300 298 299 298
304 295 298 298 299 296 290 277 279 285 291 288 288 285 285 288 289 289 288 288 292 290 282 281 279 293 294 295 291 286 284 287 279 281 276 280 286 291 294 295 297 297 297 298 299
295 291 295 300 297 294 286 283 283 292 292 290 282 287 284 285 286 286 287 292 291 293 294 288 282 290 293 295 294 288 291 282 284 272 275 279 282 284 289 292 295 298 296 297 297
291 288 297 298 296 289 279 280 287 294 292 288 286 286 286 287 286 285 287 291 294 293 294 291 287 284 289 289 288 287 285 285 285 280 276 276 280 290 291 294 294 296 302 295 295
292 282 295 295 285 282 281 286 292 291 292 290 290 288 288 289 285 285 286 290 296 294 288 291 287 280 282 291 294 292 287 286 280 278 281 279 279 298 299 302 302 305 308 295 310
289 287 295 293 278 279 284 286 289 289 288 289 287 291 292 289 283 288 289 295 295 293 288 291 286 277 279 287 291 288 290 288 287 288 281 279 281 304 306 306 308 307 303 312 322
285 282 285 285 285 281 283 283 285 291 289 289 288 291 290 287 289 286 287 292 295 293 298 295 286 283 279 284 287 286 288 288 288 283 284 285 290 300 306 309 309 309 315 321 322
285 281 284 278 281 283 283 284 283 284 289 289 288 290 287 283 285 286 289 290 292 295 292 291 284 287 287 288 288 287 287 288 287 287 285 288 292 298 303 307 314 316 319 319 318
283 283 285 284 284 282 282 281 283 285 286 285 285 287 288 284 286 284 287 287 287 290 287 287 284 287 284 288 288 285 287 287 289 289 291 293 293 300 306 311 315 314 314 312 313
288 287 290 285 281 280 280 283 284 286 288 290 289 287 286 288 292 292 292 291 290 286 285 285 284 283 281 289 287 282 286 287 290 292 294 288 296 301 302 308 307 308 309 308 309
Wind_Speed
21 21 21 21 20 20 20 20 19 18 18 17 17 17 17 19 20 4 7 9 7 10 7 3 3 4 5 5 4 4 3 11 9 8 5 1 3 4 4 6 6 9 6 2 11
22 22 21 22 21 21 20 20 19 18 17 16 15 15 16 17 13 8 10 8 11 10 2 2 2 4 2 6 6 6 8 12 6 8 4 5 3 5 4 1 3 5 6 7 9
23 23 23 23 23 22 21 20 19 18 16 15 14 14 14 11 5 4 4 5 7 13 4 3 2 2 4 2 6 7 14 12 4 7 5 5 5 5 4 10 7 7 6 8 8
23 24 24 24 24 23 21 21 19 18 16 14 12 10 12 3 3 3 8 3 5 9 3 4 3 2 4 8 5 5 8 15 2 11 3 4 3 5 12 11 2 5 7 6 7
24 24 25 25 25 24 22 20 19 18 17 12 8 5 3 4 9 4 9 7 5 5 0 2 4 4 5 4 5 6 3 2 12 14 8 7 12 7 9 6 7 7 10 11 9
24 24 25 25 25 24 23 21 17 17 15 10 4 3 2 3 4 5 5 5 6 4 3 5 6 7 4 5 5 4 3 10 8 7 4 13 17 8 3 9 8 8 10 10 8
24 25 25 26 25 25 23 23 16 16 13 6 6 4 2 12 2 4 5 5 4 5 3 5 6 5 2 5 4 6 9 8 7 4 8 3 18 27 14 11 14 10 9 11 8
24 24 26 26 26 25 25 25 19 15 4 8 9 2 8 5 4 9 5 7 7 6 7 3 4 5 5 5 7 6 4 3 9 11 7 15 32 4 12 12 15 10 9 10 6
25 25 27 27 27 27 26 27 18 5 8 12 5 4 10 8 4 9 8 5 4 5 5 2 6 6 4 5 4 3 5 5 6 9 7 16 8 5 8 8 10 9 9 9 7
26 26 26 27 26 26 26 23 4 11 7 3 3 0 4 4 6 5 9 7 7 2 2 4 3 5 2 4 12 6 2 4 3 1 10 10 15 9 1 8 9 9 9 7 7
28 26 26 26 26 21 14 4 7 4 2 8 6 4 11 6 7 6 6 3 2 2 5 4 4 8 12 14 15 12 12 9 4 9 4 8 13 11 9 6 8 9 9 7 10
29 28 27 26 24 23 1 1 4 4 9 9 15 8 9 4 6 10 1 3 3 8 3 3 14 11 13 14 15 14 13 9 6 10 7 8 10 10 11 13 9 9 9 8 5
27 26 27 27 25 2 1 4 2 2 3 9 5 4 5 2 6 11 4 3 7 6 8 11 10 8 12 11 13 14 12 8 8 7 15 11 12 8 5 8 9 10 7 7 11
29 27 27 26 3 2 4 1 3 2 4 7 4 3 2 7 5 4 3 4 3 5 5 10 10 18 11 14 12 15 9 8 5 5 6 2 7 6 8 8 9 10 9 9 10
30 29 27 11 4 1 1 5 1 5 4 4 4 2 11 2 13 3 2 1 7 8 4 7 7 5 12 15 8 11 8 8 6 6 3 5 3 7 5 8 12 14 15 9 10
33 30 23 3 0 6 6 2 4 6 6 7 6 17 11 22 4 5 3 2 2 4 6 16 11 6 7 9 14 2 5 7 3 3 6 9 7 5 6 13 16 7 9 11 11
34 32 9 2 4 3 3 4 5 3 6 7 11 14 21 7 7 5 7 4 2 5 4 5 5 4 7 4 10 8 8 2 8 7 5 9 8 13 7 6 6 10 9 10 13
34 24 2 3 6 4 2 6 1 2 5 8 12 20 4 7 5 5 6 3 4 3 4 3 4 7 6 11 6 13 11 6 7 7 9 5 10 14 22 15 6 1 10 12 12
25 5 3 4 5 2 6 5 5 2 6 11 14 3 4 5 5 6 6 4 3 3 1 4 6 1 8 6 11 5 9 8 2 3 4 5 12 8 7 7 6 7 10 12 11
6 4 5 11 4 5 6 3 3 3 7 6 5 2 6 9 8 11 4 3 2 4 4 2 8 2 4 3 6 7 9 6 3 3 5 7 20 11 8 13 11 5 10 10 5
4 5 4 13 3 7 4 5 6 6 8 5 5 9 10 7 5 9 6 6 2 1 2 4 5 4 3 6 12 7 4 4 5 4 5 5 9 6 11 2 11 10 7 8 9
4 4 6 7 7 3 2 5 7 6 6 7 5 5 6 6 9 9 7 7 2 5 4 4 3 5 10 4 3 6 7 6 6 6 3 2 6 3 4 5 5 7 7 6 10
4 4 5 5 5 4 6 6 4 5 10 5 5 4 9 5 9 8 8 3 8 7 3 2 3 4 5 2 4 3 6 5 3 4 3 1 6 3 6 5 5 6 7 11 17
3 6 6 6 1 2 6 5 6 7 10 4 8 9 6 10 11 9 16 9 7 14 31 18 7 8 7 3 2 5 7 7 6 4 7 6 4 8 6 3 5 6 13 17 19
5 1 0 6 4 8 4 4 5 10 4 6 5 7 15 10 21 8 16 19 13 10 4 4 5 8 15 13 7 6 9 5 13 7 10 6 2 7 8 4 5 11 15 19 18
3 4 4 4 4 5 3 3 7 7 6 7 6 20 19 14 18 28 24 22 6 2 2 2 2 3 10 15 14 10 12 8 4 5 10 3 5 5 8 3 11 12 18 19 18
2 2 1 3 5 3 3 3 10 15 9 12 15 20 21 16 21 27 23 19 13 5 3 2 2 2 4 3 11 7 16 11 5 6 10 9 5 8 12 8 11 14 17 18 18
Wind_Direction
350 347 344 340 338 337 334 329 325 324 323 323 322 320 319 319 314 323 249 223 193 260 298 294 292 189 143 178 195 142 196 229 221 174 203 353 151 215 213 185 204 190 221 172 136
348 344 341 337 335 333 330 324 322 320 321 321 321 319 317 319 316 280 245 244 232 312 29 338 290 171 200 184 194 181 214 223 179 188 220 192 178 300 331 192 227 297 286 350 151
346 342 339 335 332 331 328 322 321 321 320 317 317 318 318 325 334 278 139 202 242 327 272 229 219 241 212 184 205 207 238 231 230 212 221 242 212 221 219 267 204 232 279 304 178
342 339 337 333 329 328 326 322 323 321 316 313 312 316 318 345 36 195 358 34 290 307 282 137 157 205 222 214 218 248 228 246 241 243 275 213 218 223 213 234 274 259 282 296 207
339 338 335 333 329 328 324 322 322 319 314 309 302 300 5 2 250 264 316 328 324 334 14 196 160 192 204 224 224 249 258 286 239 262 254 268 254 240 255 246 257 257 278 277 242
337 336 334 333 330 326 322 316 319 314 309 302 272 191 212 321 225 248 282 301 222 191 196 155 208 214 265 240 206 267 246 253 276 248 246 257 267 249 217 215 242 243 253 268 252
335 334 334 334 330 326 322 315 327 313 301 269 193 147 171 235 225 320 316 230 196 194 231 208 201 153 185 302 283 274 286 280 227 229 236 195 266 239 243 244 264 261 263 272 252
335 334 334 335 330 326 322 314 325 315 266 158 155 160 250 253 279 280 174 275 225 227 228 220 191 194 172 264 323 323 273 214 239 186 244 161 256 143 205 196 230 239 245 259 279
336 333 335 334 332 328 322 314 324 305 145 138 117 111 274 305 270 261 170 242 238 177 217 233 144 183 171 174 333 254 257 237 309 200 187 194 259 233 184 201 227 224 242 248 283
335 332 333 331 330 326 321 313 275 96 120 143 93 67 279 282 277 266 207 237 250 234 148 177 165 172 152 160 224 237 245 306 223 307 211 236 242 297 280 212 232 235 239 247 247
333 332 331 330 327 325 332 19 14 330 161 221 227 226 276 266 312 276 283 257 255 175 210 202 164 203 204 213 230 238 268 283 304 300 329 247 258 251 247 235 237 234 251 224 240
329 331 330 328 324 321 120 58 210 231 299 250 255 242 246 245 293 268 267 242 194 244 226 248 242 227 208 214 224 228 229 243 282 288 291 293 289 256 213 215 224 225 229 208 238
329 329 329 326 322 347 273 236 69 156 305 297 236 246 244 134 277 271 183 190 230 251 248 233 240 234 202 211 211 219 223 222 235 276 288 292 283 232 221 206 214 220 225 180 205
329 331 332 329 338 310 275 65 16 109 42 281 308 280 318 321 279 269 202 197 250 253 281 256 261 220 219 224 212 235 209 226 238 219 239 155 287 250 182 206 211 207 199 205 204
329 331 333 317 296 280 285 323 179 63 355 283 270 237 315 161 277 281 145 162 247 244 252 259 286 237 231 231 184 242 186 203 235 209 206 246 303 267 170 200 213 208 205 196 185
331 333 337 55 185 250 305 309 55 43 268 328 322 326 326 325 275 284 281 167 247 282 228 252 221 252 220 238 207 145 158 182 236 196 232 221 207 269 192 201 217 210 199 180 176
333 333 335 150 272 297 306 56 26 138 359 324 312 324 319 296 300 345 313 299 308 331 336 293 209 245 200 217 196 201 140 200 211 201 238 183 223 248 259 261 216 180 186 194 162
332 328 275 224 269 305 55 49 235 344 298 316 318 309 265 355 307 299 277 275 250 196 287 317 323 177 199 207 185 185 177 173 192 168 222 192 224 235 228 249 253 166 192 186 168
331 328 327 300 309 97 69 52 223 316 338 329 321 328 289 324 315 317 279 244 245 153 293 311 272 202 239 281 174 211 201 209 193 190 111 178 259 297 223 222 224 232 174 199 198
332 339 292 340 350 56 70 273 256 296 338 327 277 154 309 314 312 333 295 232 235 197 169 270 284 300 215 253 267 168 164 189 241 195 179 181 232 228 188 208 208 213 201 206 175
25 18 284 341 61 46 94 258 293 313 2 328 286 294 292 294 295 313 272 304 269 283 50 257 233 279 210 191 206 178 191 170 148 178 173 171 231 204 237 163 187 199 216 200 153
4 358 319 353 50 35 356 301 294 302 346 284 290 266 286 305 295 279 243 211 238 245 254 237 270 264 243 250 91 239 189 189 175 240 245 261 259 252 232 209 232 222 203 146 144
347 284 328 44 66 333 309 299 276 310 330 322 297 260 317 312 305 268 274 276 277 251 219 34 233 300 314 86 138 239 189 186 105 102 247 188 279 307 106 143 213 217 158 138 131
29 354 336 34 52 57 332 296 311 312 302 355 276 283 305 293 272 275 283 304 310 293 282 273 198 224 239 135 147 270 207 181 196 137 250 281 319 14 35 118 121 137 139 136 132
23 19 97 322 342 333 282 280 317 339 313 308 281 260 324 300 302 254 298 298 285 291 260 345 223 216 244 255 215 244 276 185 205 195 173 266 51 352 345 335 133 139 129 119 120
49 21 349 282 302 327 328 303 310 312 283 295 252 303 305 284 274 293 306 304 275 10 298 299 272 273 270 246 229 222 234 238 209 227 140 334 327 269 302 249 107 101 114 113 123
333 301 241 305 323 345 263 333 307 313 275 248 281 303 301 283 309 290 281 276 254 269 270 237 229 247 277 129 159 235 216 192 162 193 129 189 202 38 13 103 102 100 105 108 109